EHI
0 0 0 0 0 0 0 0 0 0 0 0 0 0 0 0 0 0 0 0 0 0 0 0 0 0 0 0 0 0 0 0 0 0 0 0 0 0
0 0 0 0 0 0 0 0 0 0 0 0 0 0 0 0 0 0 0 0 0 0 0 0 0 0 0 0 0 0 0 0 0 0 0 0 0 0
0 0 0 0 0 0 0 0 0 0 0 0 0 0 0 0 0 0 0 0 0 0 0 0 0 0 0 0 0 0 0 0 0 0 0 0 0 0
0 0 0 0 0 0 0 0 0 0 0 0 0 0 0 0 0 0 0 0 0 0 0 0 0 0 0 0 0 0 0 0 0 0 0 0 0 0
0 0 0 0 0 0 0 0 0 0 0 0 0 0 0 0 0 0 0 0 0 0 0 0 0 0 0 0 0 0 0 0 0 0 0 0 0 0
0 0 0 0 0 0 0 0 0 0 0 0 0 0 0 0 0 0 0 0 0 0 0 0 0 0 0 0 0 0 0 0 0 0 0 0 0 0
0 0 0 0 0 0 0 0 0 0 0 0 0 0 0 0 0 0 0 0 0 0 0 0 0 0 0 0 0 0 0 0 0 0 0 0 0 0
0 0 0 0 0 0 0 0 0 0 0 0 0 0 0 0 0 0 0 0 0 0 0 0 0 0 0 0 0 0 0 0 0 0 0 0 0 0
0 0 0 0 0 0 0 0 0 0 0 0 0 0 0 0 0 0 0 0 0 0 0 0 0 0 0 0 0 0 0 0 0 0 0 0 0 0
0 0 0 0 0 0 0 0 0 0 0 0 0 0 0 0 0 0 0 0 0 0 0 0 0 0 0 0 0 0 0 0 0 0 0 0 0 0
0 0 0 0 0 0 0 0 0 0 0 0 0 0 0 0 0 0 0 0 0 0 0 0 0 0 0 0 0 0 0 0 0 0 0 0 0 0
0 0 0 0 0 0 0 0 0 0 0 0 0 0 0 0 0 0 0 0 0 0 0 0 0 0 0 0 0 0 0 0 0 0 0 0 0 0
0 0 0 0 0 0 0 0 0 0 0 0 0 0 0 0 0 0 0 0 0 0 0 0 0 0 0 0 0 0 0 0 0 0 0 0 0 0
0 0 0 0 0 0 0 0 0 0 0 0 0 0 0 0 0 0 0 0 0 0 0 0 0 0 0 0 0 0 0 0 0 0 0 0 0 0
0 0 0 0 0 0 0 0 0 0 0 0 0 0 0 0 0 0 0 0 0 0 0 0 0 0 0 0 0 0 0 0 0 0 0 0 0 0
0 0 0 0 0 0 0 0 0 0 0 0 0 0 0 0 0 0 0 0 0 0 0 0 0 0 0 0 0 0 0 0 0 0 0 0 0 0
0 0 0 0 0 0 0 0 0 0 0 0 0 0 0 0 0 0 0 0 0 0 0 0 0 0 0 0 0 0 0 0 0 0 0 0 0 0
0 0 0 0 0 0 0 0 0 0 0 0 0 0 0 0 0 0 0 0 0 0 0 0 0 0 0 0 0 0 0 0 0 0 0 0 0 0
0 0 0 0 0 0 0 0 0 0 0 0 0 0 0 0 0 0 0 0 0 0 0 0 0 0 0 0 0 0 0 0 0 0 0 0 0 0
0 0 0 0 0 0 0 0 0 0 0 0 0 0 0 0 0 0 0 0 0 0 0 0 0 0 0 0 0 0 0 0 0 0 0 0 0 0
0 0 0 0 0 0 0 0 0 0 0 0 0 0 0 0 0 0 0 0 0 0 0 0 0 0 0 0 0 0 0 0 0 0 0 0 0 0
0 0 0 0 0 0 0 0 0 0 0 0 0 0 0 0 0 0 0 0 0 0 0 0 0 0 0 0 0 0 0 0 0 0 0 0 0 0
0 0 0 0 0 0 0 0 0 0 0 0 0 0 0 0 0 0 0 0 0 0 0 0 0 0 0 0 0 0 0 0 0 0 0 0 0 0
Wind_Speed
3 3 3 2 2 2 2 3 3 3 5 3 2 2 2 2 5 3 3 6 7 7 7 6 6 6 7 6 6 6 6 6 7 7 8 8 8 8
3 3 3 2 2 2 2 2 2 4 5 3 3 2 2 3 5 4 4 7 7 7 7 6 6 6 7 8 7 7 7 7 8 8 8 8 9 9
3 4 4 3 2 2 2 2 3 2 5 4 2 2 2 3 4 3 4 4 4 7 7 7 7 7 7 8 8 8 7 8 8 8 8 9 10 10
4 4 4 3 4 3 3 3 3 3 4 5 3 2 3 4 3 4 4 4 3 7 7 8 8 8 8 8 8 8 8 8 8 9 9 9 10 11
4 5 5 4 4 4 4 4 3 3 3 4 4 2 2 2 3 3 3 3 4 5 7 8 8 8 8 9 9 8 8 8 9 9 9 9 10 11
5 5 5 5 6 5 4 5 4 4 3 3 3 3 3 2 2 2 3 3 3 4 5 6 7 8 8 9 9 9 8 9 9 9 9 10 10 11
5 5 5 6 7 6 5 4 4 4 4 3 4 3 3 2 3 2 4 3 3 3 3 3 3 3 4 7 8 9 9 9 9 10 9 10 10 11
5 5 5 6 8 9 9 8 7 6 5 5 5 5 5 4 3 3 3 3 4 2 2 4 2 4 4 4 9 10 9 9 9 10 9 9 10 11
5 4 5 5 7 6 7 9 8 10 10 6 6 6 5 5 4 4 5 5 5 3 2 5 3 4 4 5 11 10 10 10 10 10 10 10 10 10
5 5 5 6 6 6 5 5 6 7 8 6 6 7 6 5 5 6 6 5 3 3 3 4 3 4 4 4 10 11 10 10 9 10 10 10 11 11
5 5 6 6 9 10 6 6 6 6 8 10 10 9 10 9 6 3 3 3 5 4 3 3 3 3 3 4 6 10 9 9 10 10 10 10 10 10
4 5 8 9 10 10 7 6 6 6 5 5 6 7 6 6 8 5 4 4 4 4 3 3 3 2 3 3 3 4 5 8 11 11 11 11 10 6
4 4 5 10 11 11 8 6 8 6 4 4 4 4 4 3 4 4 4 5 5 5 3 3 3 3 4 4 3 4 4 4 5 6 9 11 11 7
4 4 5 9 10 9 7 7 9 6 3 3 4 4 4 4 4 4 5 5 6 6 5 5 4 4 4 5 5 3 3 4 4 5 4 8 9 10
5 8 8 8 7 6 7 8 7 3 3 4 4 5 4 4 4 4 4 4 4 5 5 5 5 4 5 6 5 4 4 4 4 4 4 4 5 5
5 6 8 7 6 6 5 5 3 4 4 4 4 4 3 3 4 3 4 3 4 4 4 5 5 6 6 6 5 5 5 4 4 4 4 5 5 4
3 2 2 2 3 3 3 3 3 3 4 3 4 3 3 4 4 3 3 3 4 5 4 3 3 4 6 6 6 6 5 5 4 4 4 5 5 5
4 2 3 3 3 4 4 3 3 3 3 3 3 4 4 4 3 3 3 4 5 5 5 4 3 2 3 4 7 6 5 5 4 4 4 5 7 5
2 2 3 3 4 4 4 3 4 3 3 3 3 4 3 3 3 3 3 4 4 5 4 4 3 4 5 6 5 6 5 4 4 5 5 5 7 6
2 3 4 4 4 4 4 4 4 3 3 3 4 3 3 3 3 4 4 4 4 5 5 4 4 5 7 6 5 5 7 6 5 5 5 4 5 7
3 3 4 4 4 4 4 4 4 4 4 4 4 4 3 3 4 4 4 6 5 4 5 5 6 7 3 2 3 4 4 7 7 5 5 4 5 4
3 3 3 4 3 4 4 4 4 4 4 4 4 4 3 3 4 5 4 4 4 5 6 5 4 3 3 4 5 5 5 4 6 8 8 8 5 5
4 4 4 4 4 3 4 4 4 4 4 4 4 3 3 4 4 4 4 5 5 5 5 4 3 3 3 4 5 5 5 5 3 3 4 6 8 9
Wind_Direction
220 230 228 224 216 213 202 193 198 244 258 255 254 262 277 272 278 287 267 271 273 273 278 286 290 286 280 269 267 266 265 263 262 264 264 265 268 271
223 222 237 235 223 214 213 222 215 219 247 244 244 273 283 286 284 286 277 275 272 273 274 279 282 285 287 277 270 267 268 266 262 261 264 268 270 270
239 232 239 241 234 227 223 225 228 222 246 266 263 278 271 275 288 283 286 269 265 271 272 275 279 282 281 285 277 268 266 267 262 263 267 271 273 272
243 241 244 241 241 236 230 234 235 230 234 255 264 261 266 263 271 278 289 287 272 272 273 272 272 279 282 280 280 278 273 268 264 266 268 270 273 275
238 238 243 238 240 237 233 235 237 243 238 244 261 268 271 269 277 279 282 272 269 270 268 266 270 278 279 281 279 279 280 275 268 264 266 270 272 273
245 241 240 236 236 234 237 234 233 234 237 240 253 260 258 258 248 270 290 264 271 275 265 269 274 278 277 279 277 274 274 273 274 272 269 268 269 271
258 249 247 248 246 241 241 234 229 232 233 237 251 259 254 246 244 248 271 276 269 253 257 263 267 264 266 275 273 269 271 272 274 277 277 274 270 269
265 262 258 257 257 255 256 252 243 239 233 232 245 245 251 248 249 250 263 270 265 233 243 267 255 257 260 258 266 267 267 271 273 273 273 275 277 275
258 262 263 258 260 253 259 263 257 256 251 241 239 245 245 237 235 249 253 250 256 248 244 264 249 257 261 265 268 266 269 270 270 272 270 274 277 280
257 253 258 258 252 249 245 250 254 254 254 249 237 243 244 237 233 237 247 258 271 255 225 256 252 255 270 260 265 264 267 267 271 275 275 277 277 278
260 257 257 257 260 257 246 242 252 258 265 263 263 262 262 259 252 242 243 240 260 257 221 236 252 269 269 260 259 261 264 268 272 274 274 278 278 278
265 260 262 263 266 263 243 233 244 249 251 261 266 269 265 255 252 234 228 232 249 251 210 221 245 261 276 262 248 248 255 266 270 272 275 275 275 274
268 269 266 271 270 272 266 244 249 258 242 245 248 252 253 248 241 235 232 230 234 245 226 218 235 242 249 271 268 249 243 253 259 265 270 272 271 270
265 270 269 274 278 280 280 275 275 275 248 248 246 245 246 248 249 247 246 242 239 243 233 220 232 235 242 258 266 256 246 250 257 263 261 269 269 268
265 269 277 282 284 283 284 288 283 256 243 246 248 249 247 249 256 257 255 250 254 253 241 228 233 241 239 249 257 260 269 265 254 253 256 259 263 258
278 279 283 285 283 282 285 286 276 259 253 252 255 260 255 247 248 247 252 250 257 265 248 235 239 236 243 252 252 257 251 250 248 255 262 265 263 255
270 265 264 268 265 268 269 267 263 264 261 258 258 259 261 255 252 247 247 248 243 252 264 261 248 246 244 243 245 247 249 256 253 254 259 265 263 255
287 265 259 259 259 264 267 271 267 263 263 263 261 262 258 253 257 257 250 247 249 250 253 256 256 269 274 261 234 240 245 251 255 254 251 258 266 260
273 270 264 258 256 257 257 256 259 260 259 258 260 262 262 258 255 256 254 251 255 258 256 248 235 225 243 263 261 229 238 253 257 255 246 245 258 264
254 255 261 265 258 251 249 253 258 258 256 256 254 252 250 253 257 255 254 256 257 260 263 252 237 229 230 245 258 261 245 241 241 250 255 260 262 270
263 263 263 262 266 261 253 250 251 254 254 254 253 252 247 245 250 253 254 261 269 266 262 261 254 263 259 235 252 262 253 247 255 253 249 257 267 264
283 273 271 269 269 270 266 259 256 257 254 249 251 251 249 246 247 250 252 255 258 261 267 271 271 265 226 228 247 260 271 275 271 274 268 257 244 244
280 279 277 272 267 266 263 258 256 258 256 250 249 249 248 249 249 250 253 255 259 262 269 271 266 251 243 238 246 255 260 268 273 278 277 277 275 275